QPF
0.00 0.00 0.00 0.00 0.00 0.00 0.00 0.00 0.00 0.00 0.00 0.00 0.00 0.00 0.00 0.00 0.00 0.00 0.00 0.00 0.00 0.00 0.00 0.00 0.00 0.00 0.00 0.00 0.00 0.00 0.00 0.00 0.01 0.01 0.00 0.00 0.00 0.00 0.00 0.01 0.02 0.03 0.01 0.00
0.00 0.00 0.00 0.00 0.00 0.00 0.00 0.00 0.00 0.00 0.00 0.00 0.00 0.00 0.00 0.00 0.00 0.00 0.00 0.00 0.00 0.00 0.00 0.00 0.00 0.00 0.00 0.00 0.00 0.00 0.00 0.00 0.00 0.00 0.00 0.00 0.00 0.00 0.00 0.02 0.01 0.01 0.01 0.00
0.00 0.00 0.00 0.00 0.00 0.00 0.00 0.00 0.00 0.00 0.00 0.00 0.00 0.00 0.00 0.00 0.00 0.00 0.00 0.00 0.00 0.00 0.00 0.00 0.00 0.00 0.00 0.00 0.00 0.00 0.00 0.00 0.00 0.00 0.00 0.00 0.00 0.00 0.01 0.04 0.08 0.04 0.02 0.00
0.00 0.00 0.00 0.00 0.00 0.00 0.00 0.00 0.00 0.00 0.00 0.00 0.00 0.00 0.00 0.00 0.00 0.00 0.00 0.00 0.00 0.00 0.00 0.00 0.00 0.00 0.00 0.00 0.00 0.00 0.00 0.00 0.00 0.00 0.00 0.00 0.00 0.00 0.01 0.03 0.03 0.02 0.01 0.00
0.00 0.00 0.00 0.00 0.00 0.00 0.00 0.00 0.00 0.00 0.00 0.00 0.00 0.00 0.00 0.00 0.00 0.00 0.00 0.00 0.00 0.00 0.00 0.00 0.00 0.00 0.00 0.00 0.00 0.00 0.00 0.00 0.00 0.00 0.03 0.02 0.02 0.01 0.03 0.02 0.01 0.02 0.02 0.02
0.00 0.00 0.00 0.00 0.00 0.00 0.00 0.00 0.00 0.00 0.00 0.00 0.00 0.00 0.00 0.00 0.00 0.00 0.00 0.00 0.00 0.00 0.00 0.00 0.00 0.00 0.00 0.00 0.00 0.00 0.00 0.00 0.00 0.03 0.05 0.05 0.04 0.01 0.04 0.02 0.01 0.01 0.01 0.02
0.00 0.00 0.00 0.00 0.00 0.00 0.00 0.00 0.00 0.00 0.00 0.00 0.00 0.00 0.00 0.00 0.00 0.00 0.00 0.00 0.00 0.00 0.00 0.00 0.00 0.00 0.00 0.00 0.00 0.00 0.00 0.00 0.01 0.06 0.03 0.02 0.05 0.06 0.08 0.05 0.02 0.02 0.05 0.05
0.00 0.00 0.00 0.00 0.00 0.00 0.00 0.00 0.00 0.00 0.00 0.00 0.00 0.00 0.00 0.00 0.00 0.00 0.00 0.00 0.00 0.00 0.00 0.00 0.00 0.00 0.00 0.00 0.00 0.00 0.00 0.00 0.02 0.02 0.02 0.03 0.09 0.16 0.14 0.09 0.06 0.04 0.03 0.02
0.00 0.00 0.00 0.00 0.00 0.00 0.00 0.00 0.00 0.00 0.00 0.00 0.00 0.00 0.00 0.00 0.00 0.00 0.00 0.00 0.00 0.00 0.00 0.00 0.00 0.00 0.00 0.00 0.00 0.00 0.00 0.00 0.02 0.05 0.10 0.02 0.02 0.02 0.02 0.02 0.01 0.02 0.02 0.01
0.00 0.00 0.00 0.00 0.00 0.00 0.00 0.00 0.00 0.00 0.00 0.00 0.00 0.00 0.00 0.00 0.00 0.00 0.00 0.00 0.00 0.00 0.00 0.00 0.00 0.00 0.00 0.00 0.00 0.00 0.00 0.00 0.03 0.10 0.13 0.06 0.01 0.00 0.00 0.01 0.04 0.04 0.02 0.01
0.00 0.00 0.00 0.00 0.00 0.00 0.00 0.00 0.00 0.00 0.00 0.00 0.00 0.00 0.00 0.00 0.00 0.00 0.00 0.00 0.00 0.00 0.00 0.00 0.00 0.00 0.00 0.00 0.00 0.00 0.00 0.00 0.00 0.00 0.00 0.00 0.01 0.02 0.03 0.04 0.04 0.03 0.02 0.01
0.00 0.00 0.00 0.00 0.00 0.00 0.00 0.00 0.00 0.00 0.00 0.00 0.00 0.00 0.00 0.00 0.00 0.00 0.00 0.00 0.00 0.00 0.00 0.00 0.00 0.00 0.00 0.00 0.00 0.00 0.00 0.00 0.00 0.00 0.01 0.01 0.02 0.02 0.03 0.04 0.04 0.03 0.02 0.01
0.00 0.00 0.00 0.00 0.00 0.00 0.00 0.00 0.00 0.00 0.00 0.00 0.00 0.00 0.00 0.00 0.00 0.00 0.00 0.00 0.00 0.00 0.00 0.00 0.00 0.00 0.00 0.00 0.00 0.00 0.00 0.00 0.00 0.00 0.00 0.00 0.01 0.02 0.05 0.06 0.06 0.03 0.01 0.00
0.00 0.00 0.00 0.00 0.00 0.00 0.00 0.00 0.00 0.00 0.00 0.00 0.00 0.00 0.00 0.00 0.00 0.00 0.00 0.00 0.00 0.00 0.00 0.00 0.00 0.00 0.00 0.00 0.00 0.00 0.00 0.00 0.00 0.00 0.00 0.00 0.00 0.00 0.01 0.01 0.01 0.00 0.00 0.00
0.00 0.00 0.00 0.00 0.00 0.00 0.00 0.00 0.00 0.00 0.00 0.00 0.00 0.00 0.00 0.00 0.00 0.00 0.00 0.00 0.00 0.00 0.00 0.00 0.00 0.00 0.00 0.00 0.00 0.00 0.00 0.00 0.01 0.02 0.01 0.01 0.00 0.01 0.00 0.00 0.00 0.00 0.00 0.00
0.00 0.00 0.00 0.00 0.00 0.00 0.00 0.00 0.00 0.00 0.00 0.00 0.00 0.00 0.00 0.00 0.00 0.00 0.00 0.00 0.00 0.00 0.00 0.00 0.00 0.00 0.00 0.00 0.00 0.01 0.01 0.01 0.01 0.00 0.00 0.00 0.00 0.00 0.00 0.00 0.00 0.00 0.00 0.00
0.00 0.00 0.00 0.00 0.00 0.00 0.00 0.00 0.00 0.00 0.00 0.00 0.00 0.00 0.00 0.00 0.00 0.00 0.00 0.00 0.00 0.00 0.00 0.00 0.00 0.00 0.00 0.00 0.00 0.00 0.00 0.00 0.00 0.00 0.00 0.00 0.00 0.00 0.00 0.00 0.00 0.00 0.00 0.00
0.00 0.00 0.00 0.00 0.00 0.00 0.00 0.00 0.00 0.00 0.00 0.00 0.00 0.00 0.00 0.00 0.00 0.00 0.00 0.00 0.00 0.00 0.00 0.00 0.00 0.00 0.00 0.00 0.00 0.00 0.00 0.00 0.00 0.00 0.00 0.00 0.00 0.00 0.00 0.00 0.00 0.00 0.00 0.00
0.00 0.00 0.00 0.00 0.00 0.00 0.00 0.00 0.00 0.00 0.00 0.00 0.00 0.00 0.00 0.00 0.00 0.00 0.00 0.00 0.00 0.00 0.00 0.00 0.00 0.00 0.00 0.00 0.00 0.00 0.00 0.00 0.00 0.00 0.00 0.00 0.00 0.00 0.00 0.00 0.00 0.00 0.00 0.00
0.00 0.00 0.00 0.00 0.00 0.00 0.00 0.00 0.00 0.00 0.00 0.00 0.00 0.00 0.00 0.00 0.00 0.00 0.00 0.00 0.00 0.00 0.00 0.00 0.00 0.00 0.00 0.00 0.00 0.00 0.00 0.00 0.00 0.00 0.00 0.00 0.00 0.00 0.00 0.00 0.00 0.00 0.00 0.00
0.00 0.00 0.00 0.00 0.00 0.00 0.00 0.00 0.00 0.00 0.00 0.00 0.00 0.00 0.00 0.00 0.00 0.00 0.00 0.00 0.00 0.00 0.00 0.00 0.00 0.00 0.00 0.00 0.00 0.00 0.00 0.00 0.00 0.00 0.00 0.00 0.00 0.00 0.00 0.00 0.00 0.00 0.00 0.00
0.00 0.00 0.00 0.00 0.00 0.00 0.00 0.00 0.00 0.00 0.00 0.00 0.00 0.00 0.00 0.00 0.00 0.00 0.00 0.00 0.00 0.00 0.00 0.00 0.00 0.00 0.00 0.00 0.00 0.00 0.00 0.00 0.00 0.00 0.00 0.00 0.00 0.00 0.00 0.00 0.00 0.00 0.00 0.00
0.00 0.00 0.00 0.00 0.00 0.00 0.00 0.00 0.00 0.00 0.00 0.00 0.00 0.00 0.00 0.00 0.00 0.00 0.00 0.00 0.00 0.00 0.00 0.00 0.00 0.00 0.00 0.00 0.00 0.00 0.00 0.00 0.00 0.00 0.00 0.00 0.00 0.00 0.00 0.00 0.00 0.00 0.00 0.00
0.00 0.01 0.00 0.00 0.00 0.00 0.00 0.00 0.00 0.00 0.00 0.00 0.00 0.00 0.00 0.00 0.00 0.00 0.00 0.00 0.00 0.00 0.00 0.00 0.00 0.00 0.00 0.00 0.00 0.00 0.00 0.00 0.00 0.00 0.00 0.00 0.00 0.00 0.00 0.00 0.00 0.00 0.00 0.00
0.00 0.00 0.00 0.00 0.00 0.00 0.00 0.00 0.00 0.00 0.00 0.00 0.00 0.00 0.00 0.00 0.00 0.00 0.00 0.00 0.00 0.00 0.00 0.00 0.00 0.00 0.00 0.00 0.00 0.00 0.00 0.00 0.00 0.00 0.00 0.00 0.00 0.00 0.00 0.00 0.00 0.00 0.00 0.00
0.00 0.00 0.00 0.00 0.00 0.00 0.00 0.00 0.00 0.00 0.00 0.00 0.00 0.00 0.00 0.00 0.00 0.00 0.00 0.00 0.00 0.00 0.00 0.00 0.00 0.00 0.00 0.00 0.00 0.00 0.00 0.00 0.00 0.00 0.00 0.00 0.00 0.00 0.00 0.00 0.00 0.00 0.00 0.00
MSLP
1010.07 1009.43 1008.51 1008.01 1008.20 1008.09 1007.90 1007.58 1007.25 1007.50 1007.74 1007.88 1007.39 1007.35 1007.82 1009.06 1009.98 1010.25 1010.74 1011.33 1012.21 1012.75 1013.67 1014.55 1015.00 1015.43 1015.97 1016.65 1017.31 1017.83 1018.36 1018.72 1019.10 1019.45 1019.49 1019.63 1019.82 1020.21 1020.76 1020.94 1021.29 1021.69 1021.73 1022.16
1009.75 1008.61 1008.57 1009.00 1008.76 1008.69 1008.32 1007.71 1007.47 1007.79 1008.14 1008.04 1006.85 1006.92 1007.20 1007.95 1009.07 1009.56 1009.82 1010.33 1010.91 1011.68 1012.52 1013.50 1014.12 1014.85 1015.34 1015.83 1016.48 1017.04 1017.53 1018.09 1018.45 1018.68 1019.00 1019.13 1019.38 1019.72 1020.08 1020.73 1021.21 1021.38 1021.59 1022.01
1008.41 1008.26 1008.89 1008.91 1008.66 1008.69 1008.37 1007.91 1007.88 1007.77 1007.97 1007.88 1007.49 1006.76 1007.09 1007.64 1008.33 1008.91 1009.24 1009.39 1009.87 1010.44 1011.23 1012.25 1013.15 1013.78 1014.46 1014.90 1015.57 1016.18 1016.75 1017.25 1017.76 1018.10 1018.36 1018.78 1018.98 1019.41 1019.89 1020.78 1021.04 1021.19 1021.54 1021.83
1008.37 1008.37 1008.63 1008.49 1008.23 1008.45 1007.94 1008.20 1008.31 1008.19 1007.87 1006.82 1007.52 1005.88 1006.27 1006.62 1007.28 1007.74 1008.17 1008.54 1008.77 1009.45 1010.26 1010.81 1011.76 1012.57 1013.32 1014.07 1014.80 1015.54 1016.07 1016.58 1017.04 1017.61 1017.72 1018.34 1018.33 1018.51 1019.21 1019.96 1020.45 1020.59 1021.44 1021.70
1007.84 1008.10 1008.25 1008.05 1007.90 1008.29 1008.01 1008.53 1008.50 1008.29 1007.57 1007.45 1007.03 1006.26 1005.51 1006.34 1005.98 1006.09 1006.74 1007.19 1007.71 1008.15 1008.94 1009.55 1010.16 1011.09 1012.23 1013.23 1014.05 1014.80 1015.47 1015.90 1016.45 1017.19 1017.62 1017.97 1018.00 1017.89 1018.25 1019.55 1019.98 1020.56 1021.12 1021.63
1007.33 1008.20 1007.95 1007.66 1008.09 1008.24 1008.59 1008.58 1008.66 1008.50 1007.89 1007.24 1006.63 1006.34 1004.72 1004.78 1004.84 1004.92 1005.37 1006.02 1006.74 1007.32 1007.90 1008.38 1009.12 1010.13 1010.90 1012.06 1013.00 1013.89 1014.56 1015.02 1015.91 1016.92 1017.61 1017.88 1017.88 1017.85 1018.64 1019.21 1019.52 1020.22 1020.97 1021.50
1007.34 1007.46 1007.59 1008.00 1007.78 1008.27 1008.28 1008.19 1007.68 1007.81 1007.56 1007.08 1007.21 1006.54 1004.82 1004.65 1004.98 1005.11 1005.14 1005.36 1005.85 1006.42 1007.03 1007.55 1008.11 1008.72 1009.56 1010.59 1011.84 1012.85 1013.44 1013.86 1015.25 1016.07 1016.73 1017.10 1017.54 1017.78 1018.38 1018.69 1018.91 1019.48 1020.45 1021.30
1006.28 1006.59 1007.02 1007.26 1007.16 1007.05 1007.48 1007.49 1007.40 1007.51 1007.61 1007.17 1007.78 1006.06 1004.68 1005.06 1005.19 1005.20 1005.18 1005.25 1005.54 1005.67 1005.93 1006.41 1006.96 1007.80 1008.62 1009.60 1010.80 1011.90 1012.46 1013.32 1014.36 1015.78 1016.57 1016.99 1017.24 1017.69 1018.21 1018.41 1018.72 1019.31 1020.02 1020.77
1005.74 1005.96 1006.70 1006.95 1007.00 1007.12 1007.46 1007.64 1007.85 1007.99 1008.80 1008.02 1006.78 1006.04 1005.26 1005.27 1005.06 1004.99 1004.87 1005.06 1004.94 1005.20 1005.47 1005.85 1006.34 1007.06 1008.07 1009.00 1009.98 1011.03 1011.91 1012.70 1013.49 1014.82 1015.42 1015.38 1016.24 1017.16 1017.59 1018.01 1018.46 1019.09 1019.86 1020.42
1005.82 1005.96 1006.62 1007.15 1007.21 1007.46 1007.28 1007.45 1007.82 1007.89 1007.94 1007.43 1006.34 1005.86 1004.59 1004.78 1004.64 1004.74 1004.61 1004.56 1004.67 1005.08 1005.45 1005.92 1006.40 1006.99 1007.77 1008.45 1009.56 1010.65 1011.36 1011.79 1012.57 1014.14 1014.68 1015.42 1016.03 1016.51 1017.00 1017.49 1018.00 1018.71 1019.44 1019.95
1005.55 1005.88 1006.73 1006.91 1006.39 1005.86 1007.17 1007.10 1007.39 1007.49 1007.76 1007.33 1006.61 1005.48 1004.86 1004.59 1004.58 1004.53 1004.76 1004.92 1004.91 1004.99 1005.32 1005.94 1006.49 1007.13 1007.83 1008.61 1009.38 1010.30 1010.96 1011.36 1011.81 1012.88 1013.86 1015.06 1015.66 1016.00 1016.41 1016.91 1017.68 1018.23 1018.82 1019.36
1005.67 1005.90 1005.79 1005.77 1006.20 1006.19 1005.87 1006.13 1006.68 1006.95 1007.22 1007.60 1007.04 1005.48 1004.74 1004.60 1004.72 1004.88 1004.85 1005.17 1005.34 1005.52 1005.60 1006.01 1006.51 1007.19 1007.73 1008.34 1009.09 1009.96 1010.56 1011.01 1011.51 1012.18 1013.10 1014.19 1015.03 1015.70 1016.38 1017.11 1017.68 1018.37 1019.14 1019.81
1005.69 1005.82 1005.46 1005.71 1006.52 1006.47 1005.88 1006.01 1006.31 1006.76 1007.34 1006.62 1006.36 1005.14 1004.76 1004.74 1004.77 1004.68 1004.79 1005.02 1005.59 1005.83 1005.90 1006.38 1006.90 1007.30 1007.87 1008.61 1009.41 1010.15 1010.82 1011.21 1011.79 1012.49 1013.32 1014.17 1015.04 1015.96 1016.69 1017.23 1017.89 1018.55 1019.03 1019.50
1005.14 1005.22 1005.01 1004.64 1004.56 1004.78 1005.34 1005.36 1005.66 1005.96 1006.01 1005.68 1005.45 1004.55 1003.96 1004.00 1003.96 1004.10 1004.54 1005.16 1005.70 1005.99 1006.22 1006.44 1007.15 1007.63 1008.33 1009.07 1009.67 1010.25 1011.10 1011.82 1012.53 1013.07 1013.60 1014.24 1014.97 1015.68 1016.25 1017.01 1017.79 1018.38 1018.97 1019.45
1005.19 1004.74 1005.06 1004.77 1004.57 1004.40 1004.49 1004.42 1004.95 1005.10 1005.07 1004.67 1004.39 1003.79 1003.67 1003.53 1003.66 1003.89 1005.12 1005.72 1006.12 1006.46 1006.84 1007.26 1007.58 1008.12 1008.78 1009.51 1010.17 1010.89 1011.76 1012.35 1012.90 1013.34 1013.70 1014.55 1015.25 1015.88 1016.50 1017.17 1017.71 1018.33 1018.73 1019.67
1005.15 1004.81 1005.24 1005.05 1004.97 1004.81 1004.21 1004.09 1004.06 1004.27 1004.09 1004.01 1003.86 1003.14 1003.28 1003.67 1004.30 1004.89 1005.58 1006.22 1006.77 1007.38 1007.84 1008.22 1008.57 1008.94 1009.64 1010.21 1010.80 1011.63 1012.21 1012.81 1013.26 1013.83 1014.45 1015.23 1015.86 1016.60 1017.18 1017.93 1018.56 1019.28 1019.80 1020.33
1005.31 1005.12 1005.56 1005.11 1005.34 1004.98 1004.13 1003.97 1003.66 1003.59 1003.66 1003.40 1002.82 1002.67 1002.93 1003.40 1004.42 1004.99 1005.97 1006.85 1007.66 1008.38 1008.97 1009.44 1009.82 1010.18 1010.52 1010.94 1011.48 1012.15 1012.96 1013.58 1014.09 1014.62 1015.33 1016.02 1016.78 1017.49 1018.23 1018.87 1019.39 1020.02 1020.29 1020.97
1005.44 1005.44 1005.73 1005.82 1006.17 1004.58 1003.09 1003.28 1003.02 1002.96 1002.61 1002.55 1002.60 1002.38 1002.88 1003.70 1004.47 1006.16 1006.79 1007.71 1008.78 1009.45 1010.11 1010.61 1011.03 1011.29 1011.56 1012.00 1012.54 1013.08 1013.66 1014.28 1014.89 1015.54 1016.22 1016.89 1017.48 1018.16 1018.93 1019.40 1019.81 1020.54 1020.99 1021.34
1005.56 1005.53 1005.81 1005.83 1005.20 1003.76 1003.42 1003.39 1003.03 1002.61 1001.62 1001.80 1001.80 1002.14 1002.83 1004.62 1006.10 1007.36 1008.42 1008.87 1009.80 1010.59 1011.17 1011.70 1012.13 1012.38 1012.60 1012.87 1013.40 1013.90 1014.57 1015.27 1015.93 1016.55 1017.12 1017.65 1018.16 1018.58 1019.10 1019.63 1020.18 1020.51 1020.73 1021.13
1006.05 1006.14 1005.72 1005.88 1004.49 1003.06 1002.18 1001.98 1002.46 1002.56 1000.70 1001.25 1001.71 1002.15 1003.12 1005.05 1005.61 1006.16 1008.85 1010.14 1010.97 1011.46 1011.90 1012.35 1012.86 1013.25 1013.45 1013.81 1014.17 1014.64 1015.33 1016.02 1016.66 1017.24 1017.71 1018.24 1018.63 1018.94 1019.42 1019.91 1020.70 1021.20 1021.36 1021.44
1005.96 1006.02 1005.37 1004.93 1003.88 1002.33 1001.94 1002.04 1002.50 1002.10 1000.82 1001.31 1001.60 1002.23 1003.52 1004.56 1004.85 1006.36 1008.84 1010.42 1011.41 1012.05 1012.55 1012.97 1013.25 1013.63 1014.14 1014.55 1014.93 1015.39 1016.12 1016.78 1017.55 1018.14 1018.77 1019.40 1019.94 1020.37 1020.53 1020.46 1020.63 1020.78 1020.82 1021.01
1004.26 1004.55 1004.61 1004.45 1003.50 1002.14 1002.05 1002.53 1001.33 1000.26 1001.04 1001.28 1001.80 1002.38 1003.41 1004.99 1006.62 1008.02 1009.23 1010.56 1011.65 1012.38 1013.21 1013.60 1013.94 1014.42 1014.95 1015.35 1015.74 1016.47 1017.25 1018.05 1018.61 1019.18 1019.46 1019.61 1020.03 1020.36 1020.47 1020.55 1020.69 1020.85 1020.90 1021.09
1003.66 1003.15 1002.84 1002.69 1001.41 1000.63 1000.84 999.88 1000.05 1000.47 1000.61 1001.35 1001.76 1002.63 1003.74 1005.57 1007.03 1008.49 1009.57 1010.67 1011.61 1012.43 1013.14 1013.76 1014.31 1014.93 1015.55 1015.98 1016.38 1016.82 1017.78 1018.22 1018.55 1018.99 1019.48 1019.93 1020.27 1020.47 1020.66 1020.64 1020.84 1020.88 1021.10 1021.28
1002.65 1003.10 1002.65 1002.12 1000.49 1000.45 1000.39 1000.16 1000.39 1000.73 1000.93 1001.38 1001.91 1002.84 1004.42 1005.42 1007.17 1008.60 1009.86 1010.82 1011.69 1012.56 1013.26 1013.99 1014.79 1015.59 1016.31 1016.87 1017.22 1017.56 1018.05 1018.49 1018.89 1019.38 1019.85 1020.16 1020.55 1020.62 1020.97 1020.97 1021.15 1021.30 1021.76 1022.01
1001.13 1002.40 1001.56 1000.71 1000.22 1000.72 1000.39 1000.14 1000.10 1000.98 1001.61 1002.01 1002.22 1003.00 1004.11 1005.42 1006.94 1008.19 1009.53 1010.66 1011.55 1012.51 1013.61 1014.39 1015.25 1016.18 1017.04 1017.78 1018.21 1018.59 1018.94 1019.10 1019.44 1019.97 1020.41 1020.74 1021.03 1021.07 1021.08 1021.54 1022.15 1022.51 1022.81 1023.56
1000.98 1000.55 1000.73 999.60 999.60 999.80 999.37 999.63 1000.17 1000.92 1001.43 1001.97 1002.50 1003.58 1004.59 1005.53 1006.57 1008.06 1009.40 1010.55 1011.61 1012.74 1013.78 1014.84 1015.87 1016.82 1017.70 1018.43 1018.99 1019.56 1019.82 1019.83 1020.05 1020.54 1021.07 1021.51 1021.47 1021.66 1021.79 1021.98 1022.33 1023.43 1023.72 1023.95
Thickness
5654 5648 5647 5657 5657 5658 5656 5656 5658 5662 5669 5662 5666 5667 5668 5662 5653 5650 5649 5647 5640 5639 5636 5631 5631 5629 5625 5622 5618 5616 5613 5612 5610 5608 5608 5608 5607 5605 5603 5605 5603 5601 5602 5601
5646 5647 5657 5651 5652 5647 5649 5653 5656 5660 5661 5658 5673 5667 5674 5671 5659 5658 5657 5654 5652 5648 5645 5640 5637 5633 5632 5629 5625 5623 5620 5617 5616 5614 5611 5612 5610 5609 5608 5603 5601 5602 5601 5598
5650 5656 5654 5649 5648 5642 5646 5648 5649 5653 5660 5662 5660 5663 5664 5669 5668 5663 5663 5665 5663 5659 5653 5649 5644 5642 5639 5637 5633 5630 5627 5624 5621 5618 5619 5614 5613 5610 5608 5600 5600 5601 5599 5595
5651 5659 5650 5649 5649 5650 5641 5655 5651 5649 5651 5654 5659 5656 5667 5673 5667 5667 5668 5667 5669 5665 5663 5662 5655 5651 5648 5644 5640 5636 5633 5630 5628 5623 5622 5614 5614 5613 5609 5606 5603 5601 5594 5590
5648 5648 5645 5646 5651 5654 5648 5650 5648 5650 5655 5654 5658 5659 5674 5669 5671 5677 5677 5677 5676 5677 5672 5668 5666 5662 5657 5650 5644 5640 5635 5633 5629 5623 5620 5617 5616 5618 5616 5605 5602 5597 5591 5585
5657 5655 5654 5656 5654 5655 5652 5646 5645 5648 5653 5639 5660 5657 5673 5677 5682 5688 5690 5686 5682 5680 5679 5678 5675 5669 5665 5658 5651 5644 5639 5637 5631 5622 5616 5613 5613 5614 5606 5602 5600 5594 5587 5580
5645 5647 5655 5653 5647 5650 5650 5643 5633 5629 5632 5635 5652 5649 5673 5685 5685 5685 5687 5689 5688 5685 5682 5680 5677 5676 5672 5664 5656 5649 5646 5642 5631 5627 5622 5616 5612 5609 5603 5600 5599 5593 5585 5575
5634 5626 5647 5656 5653 5650 5649 5650 5635 5614 5623 5642 5639 5644 5670 5683 5685 5688 5689 5689 5687 5688 5690 5688 5686 5681 5676 5670 5662 5654 5650 5642 5635 5622 5614 5611 5606 5604 5599 5598 5595 5590 5581 5572
5635 5636 5652 5653 5657 5656 5642 5636 5653 5633 5621 5628 5649 5658 5676 5676 5677 5681 5685 5685 5688 5689 5690 5690 5689 5686 5678 5671 5664 5656 5650 5645 5640 5627 5623 5621 5612 5605 5602 5598 5593 5585 5574 5566
5643 5629 5642 5641 5649 5647 5646 5652 5632 5636 5613 5613 5642 5644 5659 5665 5670 5676 5680 5683 5687 5688 5687 5685 5684 5681 5677 5673 5665 5657 5652 5649 5643 5629 5625 5615 5609 5607 5602 5596 5589 5579 5569 5562
5647 5638 5627 5636 5639 5647 5636 5636 5639 5643 5634 5621 5620 5640 5672 5669 5670 5670 5673 5677 5682 5685 5685 5682 5679 5677 5672 5667 5662 5655 5651 5648 5644 5634 5626 5614 5608 5604 5598 5592 5583 5575 5567 5559
5642 5634 5623 5636 5644 5649 5653 5646 5644 5628 5627 5626 5621 5636 5674 5671 5668 5666 5668 5670 5674 5676 5679 5678 5676 5672 5669 5664 5659 5652 5649 5645 5641 5634 5626 5615 5607 5599 5590 5581 5573 5564 5554 5545
5635 5625 5616 5621 5626 5633 5637 5644 5645 5640 5627 5627 5615 5634 5667 5664 5660 5667 5666 5668 5666 5667 5671 5670 5666 5664 5661 5656 5650 5645 5640 5637 5631 5624 5616 5607 5597 5587 5578 5570 5561 5553 5545 5537
5636 5633 5627 5621 5637 5646 5629 5639 5642 5636 5623 5631 5629 5644 5661 5663 5665 5668 5668 5664 5662 5662 5662 5663 5658 5654 5650 5645 5641 5637 5631 5625 5617 5611 5605 5597 5589 5581 5573 5564 5553 5545 5536 5527
5629 5621 5628 5637 5643 5645 5642 5643 5637 5631 5638 5632 5643 5646 5655 5662 5663 5668 5657 5654 5653 5652 5651 5649 5647 5643 5639 5634 5630 5626 5618 5612 5606 5601 5597 5587 5580 5572 5563 5553 5545 5536 5528 5513
5625 5619 5622 5620 5631 5631 5632 5640 5642 5639 5645 5644 5644 5647 5663 5662 5657 5651 5646 5643 5641 5638 5636 5636 5634 5631 5625 5622 5618 5611 5606 5600 5595 5589 5582 5573 5565 5556 5547 5536 5526 5514 5505 5496
5611 5616 5608 5610 5620 5620 5608 5623 5637 5640 5642 5643 5638 5653 5661 5653 5645 5646 5639 5634 5629 5624 5621 5619 5617 5615 5614 5611 5606 5599 5592 5585 5580 5574 5565 5557 5547 5536 5526 5516 5508 5497 5490 5478
5602 5608 5609 5606 5584 5585 5640 5645 5648 5641 5648 5652 5649 5657 5654 5648 5645 5630 5630 5622 5613 5610 5606 5603 5601 5600 5598 5595 5590 5585 5579 5572 5565 5558 5548 5539 5530 5521 5511 5502 5493 5480 5470 5460
5607 5606 5596 5589 5599 5627 5627 5628 5633 5634 5648 5657 5653 5654 5650 5633 5620 5611 5607 5609 5602 5596 5592 5589 5586 5585 5584 5581 5576 5570 5563 5556 5547 5539 5531 5523 5515 5506 5497 5487 5476 5468 5459 5448
5590 5593 5602 5582 5597 5596 5638 5650 5647 5641 5640 5656 5652 5647 5640 5622 5615 5628 5597 5588 5584 5583 5581 5578 5574 5570 5568 5565 5562 5557 5549 5540 5532 5524 5515 5507 5499 5490 5481 5471 5458 5447 5439 5431
5576 5579 5584 5594 5597 5622 5640 5640 5637 5614 5639 5649 5650 5645 5632 5621 5630 5617 5594 5582 5577 5573 5570 5567 5565 5561 5556 5552 5547 5542 5533 5524 5514 5505 5495 5484 5474 5464 5457 5452 5445 5437 5430 5421
5587 5587 5583 5594 5586 5597 5633 5623 5628 5651 5642 5645 5641 5639 5630 5620 5603 5593 5585 5575 5567 5563 5556 5554 5550 5546 5541 5537 5532 5522 5511 5502 5494 5484 5476 5470 5461 5452 5445 5437 5430 5422 5414 5405
5580 5602 5609 5610 5617 5642 5636 5651 5651 5648 5646 5637 5637 5633 5625 5605 5595 5585 5578 5569 5562 5557 5551 5545 5539 5533 5528 5523 5516 5508 5496 5488 5481 5473 5463 5454 5445 5437 5429 5422 5413 5407 5398 5389
5590 5588 5593 5601 5632 5629 5634 5642 5640 5637 5636 5635 5633 5626 5611 5603 5590 5580 5569 5561 5555 5549 5543 5535 5526 5518 5509 5503 5497 5491 5482 5474 5466 5457 5447 5438 5428 5421 5412 5405 5397 5388 5378 5369
5599 5583 5596 5605 5623 5618 5626 5632 5635 5625 5621 5621 5625 5619 5609 5599 5587 5578 5567 5556 5550 5542 5530 5522 5513 5502 5492 5483 5475 5468 5461 5455 5447 5437 5427 5418 5409 5402 5396 5385 5373 5363 5354 5339
5588 5595 5591 5605 5629 5624 5635 5633 5629 5621 5616 5616 5613 5605 5599 5591 5583 5572 5560 5551 5541 5528 5518 5507 5496 5484 5474 5464 5455 5446 5439 5434 5427 5417 5407 5395 5390 5382 5373 5365 5358 5340 5326 5316